DELTA 1 DEB, 7036

Orbit data source: Space-Track

DELTA 1 DEB, 7036 is space debris in SSO originally from a launch on Tue, 06 Nov 1973 UTC launched from the Air Force Western Test Range (AFWTR). Debris objects in space refer to the collection of defunct objects orbiting the Earth. Examples of debris include non-operational satellites, rocket bodies, and fragments generated from explosions, collisions, or faulty payload assembly.

Loading next visibility...
Identifier
7036, 1973-086AC
Orbit
SSO
Country
Flag of USUS
Related business
Manufacturer
Unknown
Mission
Spacecraft
Bus & Motor
Unknown
Mass
Unknown
Launch date (UTC)
1973-11-06 (52 years ago)
Launch vehicle
Unknown
Launch site
Air Force Western Test Range (AFWTR)
Object type
Payload
Rocket body
Debris
Shape & HBR
Unknown shape, 0.1 m
Radar Cross Section
Medium (>0.1 m² and <1 m²)

Expand to show TLE details & history
Last TLE update: 22 hours ago

TLE from 22 hours ago
0 DELTA 1 DEB
1 07036U 73086AC  25347.55795102  .00000869  00000-0  55658-2 0  9999
2 07036 101.5824 320.4785 0045455 213.2920 267.2836 12.55434667373842
Epoch: 2025-12-13T13:23Z
TLE epoch observation values (Epoch: 2025-12-13T13:23:26.968Z)
Latitude
58.07865°
Longitude
-123.75781°
Altitude
1,453.294 km
Speed
7.14 km/s
True Right ascension
10h 38m 21s
True Declination
57° 56' 16"
Sunlit
Object was in daylight at epoch
Visualization orbit readout
Latitude
Unknown
Longitude
Unknown
Altitude
Unknown
Speed
Unknown
Apparent Right ascension
Unknown
Apparent Declination
Unknown
Sunlit
N/A
Visualization observer readout
Local Sidereal Time
09:33:19
Azimuth
Unknown
Elevation
Unknown
Doppler factor
Unknown
Orbital elements
Apogee altitude
1,474.91 km
Perigee altitude
1,403.841 km
Semi-major axis
7,817.512 km
Eccentricity
0.00455
Inclination
101.5824°
RAAN
320.4785°
Arg. of periapsis
213.292°
True anomaly
266.76346°
Mean anomaly
267.2836°
Eccentric anomaly
267.02351°
Mean motion
3.14008 °/min
Orbital period
114.65 mins
BSTAR
0.0055658
Loading maneuver chart data...
Computing Atmospheric mass density...
Loading historical data...
Loading historical data...
Loading historical data...
Loading historical data...
Loading historical data...
Loading historical data...
Loading historical data...

Documentation

Showing up to 5 results
|